Location: Capvern
(43.1036°N, 0.3160°E)
Time: 22:55:27
(UTC+00:00)

Lacrosse 4 Rocket - Pass Details

Date: 16 October 2021
Orbit: 537 x 619 km, 68.0° (Epoch: 04 December)

Event Time Altitude Azimuth Distance (km) Brightness Sun altitude
Rises 20:09:24 0° 334° (NNW) 2,799 5.5 -32.4°
Reaches altitude 10° 20:11:39 10° 338° (NNW) 1,910 4.5 -32.8°
Enters shadow 20:12:12 14° 339° (NNW) 1,694 4.2 -32.9°
